Regional Weather Roundup
Issued by NWS

Home | Current Version | Previous Version | Graphics & Text | Print | Product List | Glossary On
Versions: 1 2 3 4 5 6 7 8 9 10 11 12 13 14 15 16 17 18 19 20 21 22 23 24 25 26 27 28 29 30 31 32 33 34 35 36 37 38 39 40 41 42 43 44 45 46 47 48 49 50
000
ASUS43 KDMX 102101
RWRIA

WEATHER ROUNDUP FOR IOWA
NATIONAL WEATHER SERVICE DES MOINES IA
300 PM CST SAT DEC 10 2016

NOTE: "FAIR" INDICATES FEW OR NO CLOUDS BELOW 12,000 FEET WITH NO
SIGNIFICANT WEATHER AND/OR OBSTRUCTIONS TO VISIBILITY.

* - THESE STATIONS ARE NOT NWS STATIONS...THUS NOT UNDER NWS
QUALITY CONTROL.  THEY ALSO DO NOT REPORT WEATHER SUCH
AS PRECIPITATION OR FOG.

IAZ001>003-012>014-020>022-031>034-043>046-102200-
   NORTHWEST IOWA

CITY           SKY/WX    TMP DP  RH WIND       PRES   REMARKS
CARROLL *      CLOUDY    23  21  93 SE14      30.20F WCI  11
CHEROKEE *     CLOUDY    21  19  91 E10G16    30.16F WCI  10
DENISON *      CLOUDY    23  19  86 E10       30.15F WCI  12
LE MARS *      CLOUDY    21  18  86 E15G22    30.13F WCI   8
ORANGE CITY *  CLOUDY    19  18  93 E13       30.12F WCI   7
SHELDON *      CLOUDY    16  14  93 E16       30.13F WCI   0
SIOUX CITY     CLOUDY    27  20  75 SE20      30.10F WCI  13
SPENCER        CLOUDY    16  12  84 E13       30.20F WCI   2
STORM LAKE *   CLOUDY    19  18  93 SE14      30.16F WCI   6
$$

IAZ055>058-069>071-079>083-090>094-102200-
   SOUTHWEST IOWA

CITY           SKY/WX    TMP DP  RH WIND       PRES   REMARKS
ATLANTIC *     CLOUDY    28  18  64 SE8       30.17F WCI  20
AUDUBON *      CLOUDY    25  19  80 E8        30.18F WCI  16
CLARINDA *     CLOUDY    32  16  51 SE8       30.19R WCI  25
COUNCIL BLFS * CLOUDY    28  16  59 SE14      30.12F WCI  17
CRESTON *      CLOUDY    28  16  59 SE10G20   30.19S WCI  19
HARLAN  *      CLOUDY    27  21  80 E9        30.19F WCI  17
LAMONI         CLOUDY    30  14  51 SE12      30.19F WCI  20
RED OAK *      CLOUDY    32  16  51 MISG      30.16F
SHENANDOAH *   CLOUDY    32  16  51 SE14      30.16F WCI  22
$$

IAZ047>049-059>061-072>074-084-102200-
   CENTRAL IOWA

CITY           SKY/WX    TMP DP  RH WIND       PRES   REMARKS
AMES           CLOUDY    23  21  92 E10       30.27F WCI  12
ANKENY *       CLOUDY    25  19  80 SE8       30.28S WCI  16
BOONE *        CLOUDY    23  19  86 E9G16     30.24F WCI  13
CHARITON *     CLOUDY    27  19  74 E10       30.23F WCI  17
DES MOINES     CLOUDY    26  20  77 SE10      30.26F WCI  16
GRINNELL*      CLOUDY    23  20  87 SE8       30.29S WCI  14
KNOXVILLE *    CLOUDY    25  18  74 SE13      30.25F WCI  13
MARSHALLTOWN   LGT SNOW  22  19  89 SE9       30.29F FOG     WCI  12
NEWTON *       CLOUDY    23  19  86 SE10G16   30.27F WCI  12
PELLA *        CLOUDY    24  20  83 SE12      30.29F WCI  13
PERRY *        CLOUDY    25  23  92 E9        30.25R WCI  15
$$

IAZ004>006-015-016-023>025-035-036-102200-
   NORTH CENTRAL IOWA

CITY           SKY/WX    TMP DP  RH WIND       PRES   REMARKS
ALGONA *       LGT SNOW  19  16  86 E9        30.24F WCI   9
CLARION *      CLOUDY    21  19  93 SE13      30.25F FOG     WCI   9
ESTHERVILLE    LGT SNOW  12  10  92 E12       30.23F VSB 1   WCI  -2
FORT DODGE *   CLOUDY    21  16  79 SE9       30.24F WCI  11
MASON CITY     LGT SNOW  16  12  84 E9        30.29F VSB 3/4 WCI   4
WEBSTER CITY * FLURRIES  23  21  93 SE14      30.23F WCI  11
IOWA FALLS *   LGT SNOW  23  20  90 SE9       30.28F WCI  13
$$

IAZ007>011-017>019-026>030-037>042-050>054-066-102200-
   NORTHEAST IOWA

CITY           SKY/WX    TMP DP  RH WIND       PRES   REMARKS
CEDAR RAPIDS   LGT SNOW  21  20  96 SE7       30.33F FOG     WCI  12
CHARLES CITY * LGT SNOW  18  14  86 E7        30.32S VSB 3/4 WCI   8
CLINTON *      LGT SNOW  23  19  85 S10       30.38F FOG     WCI  12
DECORAH *      LGT SNOW  14  10  85 E5        30.33S WCI   6
DUBUQUE        LGT SNOW  20  17  88 S6        30.36S VSB 1   WCI  12
MONTICELLO *   LGT SNOW  21  19  93 SE6       30.35F VSB 3/4 WCI  14
OELWEIN *      LGT SNOW  19  18  93 SE8       30.33F VSB 1   WCI   9
WATERLOO       LGT SNOW  20  17  88 E7        30.32F FOG     WCI  11
$$

IAZ064-065-067-068-078-102200-
   EAST CENTRAL IOWA

CITY           SKY/WX    TMP DP  RH WIND       PRES   REMARKS
DAVENPORT      LGT SNOW  22  19  89 SE8       30.37F VSB 3/4 WCI  12
IOWA CITY      LGT SNOW  23  20  88 SE7       30.36F FOG     WCI  15
MUSCATINE *    SNOW      25  21  86 SE7       30.37F VSB 1/2 WCI  17
QUAD CITIES    LGT SNOW  24  19  81 SE6       30.38F VSB 3/4 WCI  17
$$

IAZ062-063-075>077-085>089-095>099-102200-
   SOUTHEAST IOWA

CITY           SKY/WX    TMP DP  RH WIND       PRES   REMARKS
BURLINGTON     CLOUDY    24  20  84 SE9       30.35F WCI  14
FAIRFIELD *    CLOUDY    25  18  74 SE12      30.31F WCI  14
FORT MADISON * CLOUDY    28  14  54 SE9G16    30.34F WCI  20
KEOKUK *       CLOUDY    28  14  54 SE10      30.33F WCI  19
OSKALOOSA *    CLOUDY    24  20  87 SE12      30.30S WCI  12
CENTERVILLE *  PTSUNNY   28  16  59 SE12G18   30.25F WCI  18
OTTUMWA        CLOUDY    25  18  74 SE13      30.28F WCI  14
WASHINGTON *   LGT SNOW  23  23 100 SE10      30.35F WCI  12
$$

ABBREVIATIONS USED IN REMARKS
   TC - TEMPERATURES IN CELSIUS
  WCI - WIND CHILL INDEX
   HX - HEAT INDEX
  VSB - VISIBILITY
$$




USA.gov is the U.S. government's official web portal to all federal, state and local government web resources and services.